Preview of NWS' New Version of Forecast
This preview is not operational and should not be used for support decisions.

Regional Weather Roundup (RWR)

Issued by National Weather Service (NWS)

                            
000
ASUS46 KPQR 240510
RWROR 

OREGON REGIONAL WEATHER ROUNDUP
NATIONAL WEATHER SERVICE PORTLAND OR
1000 PM PDT FRI AUG 23 2019

NOTE: "FAIR" INDICATES FEW OR NO CLOUDS BELOW 12,000 FEET WITH
NO SIGNIFICANT WEATHER AND/OR OBSTRUCTIONS TO VISIBILITY.

ORZ001>013-240600-
NORTHWEST OREGON

  
CITY           SKY/WX    TMP DP  RH WIND       PRES   REMARKS
ASTORIA        CLOUDY    61  52  72 NW10      29.95S                  
TILLAMOOK      PTCLDY    55  52  88 SE6       29.97S                  
NEWPORT        PTCLDY    55  52  88 N5        29.99R                  
FLORENCE       FAIR      57  48  72 N3        29.93R                  
PORTLAND       MOCLDY    71  56  58 NW15G21   29.89R                  
VANCOUVER WA   MOCLDY    70  54  56 NW9G18    29.89R                  
SCAPPOOSE      CLOUDY    69  54  58 NW12      29.90R                  
HILLSBORO      MOCLDY    69  53  56 NW16      29.90R                  
AURORA         PTCLDY    72  55  55 N8        29.89R                  
MCMINNVILLE    PTCLDY    64  53  67 W7        29.89R                  
SALEM          PTCLDY    69  51  52 NW6       29.88R                  
CORVALLIS      PTCLDY    65  54  67 NW17      29.89R                  
EUGENE         PTCLDY    67  55  65 NE5       29.89R                  
CRESWELL       CLEAR     63  55  77 CALM      29.88R                  
$$

ORZ021-028-240600-
SOUTHWEST OREGON

  
CITY           SKY/WX    TMP DP  RH WIND       PRES   REMARKS
NORTH BEND     PTCLDY    59  54  83 N12       29.96R                  
BROOKINGS      CLEAR     58  54  86 CALM      29.88R                  
ROSEBURG       PTCLDY    74  50  42 CALM      29.87R                  
SEXTON SUMMIT  CLEAR     65  43  44 N12       30.01R                  
GRANTS PASS    FAIR      72  48  43 CALM      29.91R                  
MEDFORD        MOCLDY    74  48  39 NE6       29.87R                  
$$

ORZ014>016-041-240600-
COLUMBIA GORGE

  
CITY           SKY/WX    TMP DP  RH WIND       PRES   REMARKS
TROUTDALE      MOCLDY    72  58  61 VRB6      29.88R                  
HOOD RIVER     CLOUDY    72  50  46 CALM      29.84S                  
THE DALLES     CLOUDY    77  48  35 NW13      29.79S                  
$$

ORZ029>031-041-044-049-050-061>064-502-503-505>511-240600-
EASTERN OREGON

  
CITY           SKY/WX    TMP DP  RH WIND       PRES   REMARKS
MADRAS         PTCLDY    64  45  48 W6        29.91R                  
REDMOND        PTCLDY    65  42  43 CALM      29.92S                  
BEND           PTCLDY    68  45  42 CALM      29.94S                  
PRINEVILLE     PTCLDY    63  48  59 SW3       29.92F                  
KLAMATH FALLS  MOCLDY    67  49  52 W10       29.99R                  
LAKEVIEW       MOCLDY    61  46  57 NW7       30.03R                  
HERMISTON      CLOUDY    72  47  40 SE7       29.76F                  
PENDLETON      MOCLDY    69  40  34 E3        29.82R                  
JOHN DAY       CLEAR     72  30  20 CALM      29.95F                  
MEACHAM        MOCLDY    58  45  62 CALM      29.96S                  
LA GRANDE      MOCLDY    69  44  40 NW7       29.90S                  
BAKER CITY     PTCLDY    62  47  57 S7        29.93F                  
BURNS          CLEAR     59  34  39 CALM      29.98R                  
ROME             N/A     71  28  20 E10       29.95R                  
ONTARIO        MOCLDY    70  51  51 CALM      29.87S                  
$$